GW6797 Weather Reports


time (UTC)temp
F
wind
direction
speed
knots
gust
knots
rain 1hr
in
rain 24hr
in
rain mn
in
humidity
%
barometer
mb
20260503211801 63 338 1.7 3.5 0.00 0.00 0.00 57 1019.6
20260503211301 63 162 1.7 5.2 0.00 0.00 0.00 57 1019.5
20260503210300 63 106 1.7 5.2 0.00 0.00 0.00 56 1019.7
20260503205759 63 122 1.7 5.2 0.00 0.00 0.00 56 1019.5
20260503205258 63 192 2.6 3.5 0.00 0.00 0.00 55 1019.5
20260503204758 63 122 0.9 3.5 0.00 0.00 0.00 55 1019.3
20260503204257 63 129 1.7 3.5 0.00 0.00 0.00 54 1019.6
20260503203756 63 226 1.7 3.5 0.00 0.00 0.00 54 1019.2
20260503203256 63 103 2.6 4.3 0.00 0.00 0.00 54 1019.4
20260503202755 63 128 1.7 4.3 0.00 0.00 0.00 54 1019.6
20260503202255 62 89 2.6 5.2 0.00 0.00 0.00 57 1019.7
20260503201754 63 86 3.5 5.2 0.00 0.00 0.00 55 1019.7
20260503201253 64 110 2.6 4.3 0.00 0.00 0.00 52 1019.6
20260503200752 64 75 1.7 4.3 0.00 0.00 0.00 50 1019.5
20260503200252 64 87 0.9 4.3 0.00 0.00 0.00 50 1019.3
20260503194249 64 240 1.7 4.3 0.00 0.00 0.00 54 1019.4
20260503193248 64 80 0.0 3.5 0.00 0.00 0.00 50 1019.2
20260503192748 64 115 2.6 3.5 0.00 0.00 0.00 52 1019.4
20260503192247 64 91 1.7 4.3 0.00 0.00 0.00 55 1019.4
20260503191747 64 105 2.6 4.3 0.00 0.00 0.00 58 1019.3
20260503191247 65 97 2.6 4.3 0.00 0.00 0.00 57 1019.1
20260503190746 64 100 0.9 3.5 0.00 0.00 0.00 57 1019.2
20260503190244 65 85 2.6 3.5 0.00 0.00 0.00 56 1019.1
20260503185243 65 75 1.7 3.5 0.00 0.00 0.00 54 1019.1
20260503184743 65 96 1.7 2.6 0.00 0.00 0.00 54 1019.2
20260503184243 65 92 2.6 2.6 0.00 0.00 0.00 53 1019.2
20260503183742 66 94 0.9 2.6 0.00 0.00 0.00 52 1019.2
20260503183241 65 103 0.0 0.9 0.00 0.00 0.00 52 1019.1
20260503182741 64 129 0.0 1.7 0.00 0.00 0.00 54 1019.0
20260503182240 65 231 0.0 1.7 0.00 0.00 0.00 54 1019.1
20260503181740 65 242 0.0 1.7 0.00 0.00 0.00 56 1019.2
20260503181238 65 313 1.7 1.7 0.00 0.00 0.00 54 1019.1
20260503180739 65 224 0.0 3.5 0.00 0.00 0.00 55 1019.0
20260503180237 65 238 1.7 3.5 0.00 0.00 0.00 56 1018.8
20260503175737 65 260 2.6 3.5 0.00 0.00 0.00 55 1019.0
20260503175236 66 256 2.6 4.3 0.00 0.00 0.00 55 1018.8
20260503174735 66 235 2.6 5.2 0.00 0.00 0.00 55 1018.8
20260503174235 66 248 3.5 5.2 0.00 0.00 0.00 55 1019.1
20260503173734 67 277 1.7 4.3 0.00 0.00 0.00 55 1019.0
20260503173233 67 256 2.6 4.3 0.00 0.00 0.00 55 1019.0
20260503172232 67 249 2.6 3.5 0.00 0.00 0.00 54 1019.1
20260503171732 67 238 2.6 5.2 0.00 0.00 0.00 54 1019.1
20260503171232 67 243 3.5 5.2 0.00 0.00 0.00 54 1018.8
20260503170731 68 224 1.7 3.5 0.00 0.00 0.00 53 1019.0
20260503170230 68 228 1.7 3.5 0.00 0.00 0.00 53 1019.0
20260503150716 74 88 1.7 5.2 0.00 0.00 0.00 36 1019.5
20260503130702 74 94 4.3 6.1 0.00 0.00 0.00 34 1020.4
20260503130201 75 92 3.5 6.1 0.00 0.00 0.00 32 1020.2
20260503120154 74 114 4.3 7.8 0.00 0.00 0.00 33 1020.6
20260503110648 78 81 2.6 6.1 0.00 0.00 0.00 31 1021.0
20260503110147 76 309 0.9 3.5 0.00 0.00 0.00 33 1021.0
20260503090132 73 333 1.7 2.6 0.00 0.00 0.00 35 1021.8
20260503081626 69 65 0.9 2.6 0.00 0.00 0.00 46 1022.0
20260503081126 68 44 1.7 2.6 0.00 0.00 0.00 46 1021.9
20260503080625 67 108 1.7 4.3 0.00 0.00 0.00 48 1022.0
20260503080124 65 93 0.9 4.3 0.00 0.00 0.00 49 1021.9
20260503072119 64 102 2.6 3.5 0.00 0.00 0.00 48 1022.0
20260503071619 63 148 1.7 4.3 0.00 0.00 0.00 48 1022.1
20260503071119 62 245 1.7 4.3 0.00 0.00 0.00 49 1021.8
20260503070618 61 123 1.7 5.2 0.00 0.00 0.00 50 1021.9
20260503070118 60 107 3.5 5.2 0.00 0.00 0.00 51 1022.0
20260503060109 56 82 3.5 7.0 0.00 0.00 0.00 54 1021.5
20260503055108 56 87 4.3 7.0 0.00 0.00 0.00 53 1021.5
20260503054608 55 98 3.5 6.1 0.00 0.00 0.00 56 1021.7
20260503054108 56 82 3.5 7.0 0.00 0.00 0.00 54 1021.6
20260503053607 56 340 0.0 7.0 0.00 0.00 0.00 53 1021.6
20260503053107 54 87 3.5 7.8 0.00 0.00 0.00 57 1021.7
20260503052606 55 83 3.5 7.8 0.00 0.00 0.00 54 1021.6
20260503052105 53 96 3.5 7.8 0.00 0.00 0.00 59 1021.8
20260503051604 53 93 5.2 7.0 0.00 0.00 0.00 59 1021.7
20260503051104 52 84 4.3 7.0 0.00 0.00 0.00 60 1021.6
20260503050604 52 97 4.3 7.0 0.00 0.00 0.00 60 1021.5
20260503045602 52 85 5.2 7.8 0.00 0.00 0.00 61 1021.6
20260503044601 52 86 3.5 7.8 0.00 0.00 0.00 60 1021.3
20260503044101 53 92 5.2 7.8 0.00 0.00 0.00 57 1021.3
20260503043600 54 97 5.2 7.0 0.00 0.00 0.00 55 1021.3
20260503043059 53 96 6.1 7.0 0.00 0.00 0.00 56 1021.3
20260503042559 52 87 3.5 7.0 0.00 0.00 0.00 58 1021.2
20260503042057 52 92 4.3 7.0 0.00 0.00 0.00 60 1021.4
20260503041533 53 78 3.5 7.0 0.00 0.00 0.00 57 1021.5
20260503041033 52 97 3.5 7.8 0.00 0.00 0.00 57 1021.3
20260503040532 52 84 7.0 7.8 0.00 0.00 0.00 59 1021.2
20260503040032 52 95 4.3 6.1 0.00 0.00 0.00 59 1021.2
20260503035532 51 91 3.5 5.2 0.00 0.00 0.00 58 1021.2
20260503035031 52 88 3.5 7.0 0.00 0.00 0.00 58 1021.3
20260503034531 53 89 5.2 7.8 0.00 0.00 0.00 55 1021.3
20260503034030 52 100 6.1 7.8 0.00 0.00 0.00 58 1021.3
20260503033029 52 80 5.2 7.0 0.00 0.00 0.00 59 1021.4
20260503032528 53 96 3.5 6.1 0.00 0.00 0.00 58 1021.4
20260503031528 54 70 1.7 7.8 0.00 0.00 0.00 55 1021.5
20260503031027 52 82 3.5 7.8 0.00 0.00 0.00 57 1021.6
20260503030026 53 98 3.5 7.0 0.00 0.00 0.00 55 1021.7
20260503025525 53 114 3.5 9.6 0.00 0.00 0.00 59 1021.5
20260503025024 51 88 4.3 9.6 0.00 0.00 0.00 63 1021.5
20260503024524 51 79 6.1 9.6 0.00 0.00 0.00 63 1021.6
20260503024024 51 91 6.1 9.6 0.00 0.00 0.00 62 1021.6
20260503023500 52 89 7.8 9.6 0.00 0.00 0.00 61 1021.5
20260503023000 52 86 7.0 9.6 0.00 0.00 0.00 61 1021.6
20260503022459 52 93 5.2 9.6 0.00 0.00 0.00 61 1021.5
20260503021959 52 85 5.2 7.8 0.00 0.00 0.00 60 1021.5
20260503021458 53 96 7.0 7.8 0.00 0.00 0.00 59 1021.5
20260503015957 53 104 5.2 7.8 0.00 0.00 0.00 59 1021.5
20260503015456 53 88 6.1 7.8 0.00 0.00 0.00 61 1021.4
20260503014956 54 105 5.2 7.0 0.00 0.00 0.00 58 1021.6
20260503014454 54 120 3.5 6.1 0.00 0.00 0.00 55 1021.6
20260503013454 53 84 4.3 7.0 0.00 0.00 0.00 58 1021.6
20260503012954 52 82 6.1 7.0 0.00 0.00 0.00 64 1021.8
20260503011952 54 138 2.6 4.3 0.00 0.00 0.00 56 1021.6
20260503011451 55 107 2.6 4.3 0.00 0.00 0.00 58 1021.9
20260503010952 55 27 0.9 3.5 0.00 0.00 0.00 54 1021.5
20260503010451 54 92 2.6 4.3 0.00 0.00 0.00 57 1021.8
20260503005950 53 122 0.9 4.3 0.00 0.00 0.00 61 1021.8
20260503005450 53 105 1.7 4.3 0.00 0.00 0.00 62 1021.8
20260503004949 53 302 0.0 5.2 0.00 0.00 0.00 60 1021.9
20260503004448 51 109 2.6 5.2 0.00 0.00 0.00 65 1022.2
20260503003948 51 103 4.3 4.3 0.00 0.00 0.00 68 1022.2
20260503003447 51 110 2.6 4.3 0.00 0.00 0.00 66 1022.1
20260503002947 52 113 3.5 5.2 0.00 0.00 0.00 66 1022.1
20260503002446 51 111 2.6 5.2 0.00 0.00 0.00 68 1022.0
20260503001446 52 111 1.7 5.2 0.00 0.00 0.00 65 1022.3
20260503000945 53 101 4.3 5.2 0.00 0.00 0.00 64 1022.4
20260503000444 53 108 4.3 5.2 0.00 0.00 0.00 64 1022.3
20260502235944 53 91 3.5 6.1 0.00 0.00 0.00 64 1022.5
20260502235443 53 104 2.6 6.1 0.00 0.00 0.00 63 1022.5
20260502234942 53 87 5.2 7.0 0.00 0.00 0.00 64 1022.5
20260502234442 53 80 4.3 7.0 0.00 0.00 0.00 63 1022.6
20260502233942 52 98 3.5 7.0 0.00 0.00 0.00 65 1022.6
20260502233441 53 99 4.3 7.8 0.00 0.00 0.00 64 1022.7
20260502232941 53 88 5.2 7.8 0.00 0.00 0.00 64 1022.7
20260502232440 53 93 4.3 6.1 0.00 0.00 0.00 64 1023.0
20260502231939 55 92 3.5 7.0 0.00 0.00 0.00 60 1022.8
20260502231439 56 91 4.3 7.0 0.00 0.00 0.00 57 1022.8
20260502230938 55 59 3.5 5.2 0.00 0.00 0.00 59 1022.8
20260502225937 57 105 3.5 4.3 0.00 0.00 0.00 56 1023.0
20260502224936 57 69 0.9 5.2 0.00 0.00 0.00 55 1023.2
20260502224435 57 102 3.5 5.2 0.00 0.00 0.00 54 1023.2
20260502223935 57 92 3.5 5.2 0.00 0.00 0.00 54 1023.0
20260502223434 57 97 3.5 6.1 0.00 0.00 0.00 54 1023.2
20260502222434 57 98 2.6 5.2 0.00 0.00 0.00 53 1023.3
20260502221933 57 87 2.6 4.3 0.00 0.00 0.00 54 1023.2
20260502221432 57 106 1.7 4.3 0.00 0.00 0.00 54 1023.1
20260502220932 57 71 2.6 5.2 0.00 0.00 0.00 54 1023.4
20260502220431 57 95 3.5 5.2 0.00 0.00 0.00 54 1023.1
20260502215931 57 86 4.3 5.2 0.00 0.00 0.00 54 1023.0
20260502215430 56 93 3.5 6.1 0.00 0.00 0.00 55 1023.3
20260502214930 56 87 4.3 6.1 0.00 0.00 0.00 56 1023.5
20260502214429 56 88 4.3 7.0 0.00 0.00 0.00 56 1023.2
20260502213929 57 82 6.1 7.0 0.00 0.00 0.00 55 1023.4
20260502212928 56 96 5.2 6.1 0.00 0.00 0.00 55 1023.4
20260502212427 56 95 5.2 7.0 0.00 0.00 0.00 55 1023.5